Tracking 19920 objects as of 14-Oct-2019
HD Live streaming from Space Station
objects crossing your sky now

MICROSAT-R DEB

Track MICROSAT-R DEB now!
10-day predictions


NORAD ID: 44131
Int'l Code: 2019-006S
Perigee: 287.5 km
Apogee: 1,202.7 km
Inclination: 95.5 °
Period: 99.6 minutes
Semi major axis: 7116 km
RCS: Unknown
Launch date: January 24, 2019
Source: India (IND)
Launch site: SRIHARIKOTA (SRI)

Note: This is SATELLITE DEBRIS
aabbcc
Your satellite tracking list
Your tracking list is empty




NASA's NSSDC Master Catalog

Two Line Element Set (TLE):
1 44131U 19006S   19137.47837057  .00547425  44515-4  81606-2 0  9994
2 44131  95.4791  31.8050 0643039 214.5309 141.2508 14.46232378  6968
Source of the keplerian elements: AFSPC